Miscellaneous Local Product
Issued by NWS North Platte, NE

Home | Current Version | Previous Version | Text Only | Print | Product List | Glossary On
Versions: 1 2 3 4 5 6 7 8 9 10 11 12 13 14 15 16 17 18 19 20 21 22 23 24 25 26 27 28 29 30 31 32 33 34 35 36 37 38 39 40 41 42 43 44 45 46 47 48 49 50
495
AXUS43 KLBF 300310
MISLBF


WESTERN AND NORTH CENTRAL NEBRASKA HOURLY WEATHER ROUNDUP
NATIONAL WEATHER SERVICE NORTH PLATTE NE
1000 PM CDT WED MAR 29 2017

NOTE: "FAIR" INDICATES FEW OR NO CLOUDS BELOW 12,000 FEET WITH NO
SIGNIFICANT WEATHER AND/OR OBSTRUCTIONS TO VISIBILITY.

NOTE: STATIONS NOT REPORTING VARIABLES SUCH AS SKY/WEATHER OR
PRESSURE ARE PROVIDED BY RAWS AND APRS NETWORKS AND ARE NOT UNDER
NATIONAL WEATHER SERVICE QUALITY CONTROL.

...OBSERVATIONS IN AND NEAR THE EASTERN PANHANDLE OF NEBRASKA...

CITY           SKY/WX    TMP DP  RH WIND       PRES   REMARKS
PINE RIDGE     CLOUDY    43  39  86 E5        29.95S
CHADRON        CLEAR     44  38  79 SE8       29.94S
ALLIANCE       CLEAR     37  34  89 E10       29.94F WCI  30
SIDNEY         CLEAR     35  32  88 SE3       29.96F
CRESCENT LAKE    N/A     41  36  81 NE5         N/A
$$

...OBSERVATIONS IN NORTHERN NEBRASKA AND FAR SOUTHERN SOUTH DAKOTA...

CITY           SKY/WX    TMP DP  RH WIND       PRES   REMARKS
WINNER         CLOUDY    45  37  73 E12       30.00S
VALENTINE      CLOUDY    42  35  76 NE7       29.98F
THEDFORD       MOCLDY    40  38  92 NE9       29.96F WCI  35
AINSWORTH      CLOUDY    41  37  85 NE15      29.97F
O`NEILL        CLOUDY    38  38  98 NE13      29.97S FOG     WCI  30
ORD            CLOUDY    39  35  86 N17       29.91F WCI  30
BROKEN BOW     CLOUDY    40  37  89 N16G24    29.92S WCI  31
VALENTINE NWR    N/A     39  37  91 E6G13       N/A  WCI  35
HALSEY           N/A     39  38  97 N7G14       N/A  WCI  34
BUTTE            N/A     37  36  95 NE14        N/A  WCI  28
CHAMBERS         N/A     38  37  97 E3          N/A
EWING            N/A     37  35  94 NE7         N/A  WCI  31
$$

...OBSERVATIONS IN SOUTHWEST NEBRASKA AND FAR NORTHEAST COLORADO...

CITY           SKY/WX    TMP DP  RH WIND       PRES   REMARKS
WRAY           FAIR      41  36  81 NW3       29.95F
HOLYOKE        FAIR      41  37  87 NW3       29.95S
IMPERIAL       CLEAR     38  35  89 N6        29.94F WCI  33
OGALLALA       CLEAR     40  35  85 N5        29.95S
NORTH PLATTE   CLOUDY    40  36  86 N6        29.93F
MCCOOK         CLOUDY    41  39  93 N13       29.90F
LEXINGTON      CLOUDY    40  38  91 N16       29.90F WCI  32
STAPLETON        N/A     39  37  91 CALM        N/A
GOTHENBURG       N/A     41  37  84 N12         N/A
CALLAWAY         N/A     40  38  93 NE12        N/A  WCI  33
$$

...OBSERVATIONS IN CENTRAL LINCOLN COUNTY AREA...

CITY           SKY/WX    TMP DP  RH WIND       PRES   REMARKS
N.P. AIRPORT   CLOUDY    40  36  86 N6        29.93F
N.P. DOWNTOWN    N/A     40  36  87 N3          N/A
N.P. SOUTHEAST   N/A     40  36  86 N3          N/A
N.P. HILLCREST   N/A     39  36  89 NE9         N/A  WCI  33
$$

...SOME OBSERVATIONS FROM AROUND THE REGION...

CITY           SKY/WX    TMP DP  RH WIND       PRES   REMARKS
DENVER         PTCLDY    39  32  76 SE10      29.97S WCI  32
LIMON          CLEAR     32  31  96 NW5       29.99R WCI  27
ASPEN          CLOUDY    34  25  69 S5        30.08R WCI  30
LARAMIE        CLEAR     35  23  61 W5        29.99R WCI  31
CASPER         CLEAR     42  29  59 W6        29.90S
CHEYENNE       CLEAR     44  29  55 SW3       29.97R
SCOTTSBLUFF    CLEAR     42  36  79 E7        29.95S
GRAND ISLAND   LGT RAIN  39  39 100 N18       29.85F FOG     WCI  30
OMAHA          CLOUDY    43  38  82 NE23G36   29.81F
SIOUX FALLS    LGT RAIN  40  39  97 E15       30.02S WCI  32
PIERRE         CLEAR     42  33  70 SE13      29.98F
RAPID CITY     CLEAR     41  37  86 SE3       29.94S
BISMARCK       CLOUDY    57  36  45 S12       29.90F
KANSAS CITY    LGT RAIN  54  53  97 NE12      29.67R FOG
HILL CITY      LGT RAIN  40  38  93 N17G28    29.87S WCI  31
WICHITA        CLOUDY    45  44  97 NW20      29.64R
DODGE CITY     LGT RAIN  39  37  92 N20G30    29.83R WCI  29
OKLAHOMA CITY  MOCLDY    49  41  74 W12       29.81R
DALLAS         PTCLDY    63  49  60 NW16      29.83R
AMARILLO       CLEAR     43  39  86 NW12      29.97R
$$




USA.gov is the U.S. government's official web portal to all federal, state and local government web resources and services.